Location: Argonnex
(45.9500°N, 6.1333°E)
Time: 10:24:26
(UTC+00:00)

Cosmos 2266 Rocket - Pass Details

Date: 02 October 2023
Orbit: 933 x 1008 km, 82.9° (Epoch: 10 December)

Event Time Altitude Azimuth Distance (km) Brightness Sun altitude
Exits shadow 03:05:33 54° 288° (WNW) 1,197 4.1 -26.1°
Drops below altitude 10° 03:11:43 10° 1° (N) 2,793 6.6 -25.1°
Sets 03:14:21 0° 6° (N) 3,750 7.4 -24.7°
